Location: Dalton Gardens
(47.7327°N, 116.7697°W)
Time: 12:42:37
(UTC+00:00)

Envisat - Pass Details

Date: 03 December 2022
Orbit: 763 x 765 km, 98.2° (Epoch: 31 January)

Event Time Altitude Azimuth Distance (km) Brightness Sun altitude
Rises 11:01:17 0° 25° (NNE) 3,244 6.7 -42.1°
Reaches altitude 10° 11:04:03 10° 39° (NE) 2,313 5.9 -41.6°
Enters shadow 11:04:30 12° 43° (NE) 2,179 5.8 -41.5°
